START_TIME,STEP,MOV.,M29,t_acc.,H22,t_acc.,H26,t_acc.,H30,t_acc.
1979-08-05 18:05:08.320 ,0,0,,0,,0,,0,,0
1979-08-05 18:05:18.520 ,1,1,0.,24.0,0.,24.0,0.,24.0,0.,24.0
1979-08-05 18:05:43.120 ,0,0,0.,24.0,0.,24.0,0.,24.0,0.,24.0
1979-08-05 18:06:06.520 ,0,0,0.,24.0,0.,24.0,0.,24.0,0.,24.0
1979-08-05 18:06:30.520 ,5,1,0.,24.0,0.,24.0,0.,24.0,0.,24.0
1979-08-05 18:06:54.520 ,5,0,0.,24.0,0.,24.0,0.,24.0,0.,24.0
1979-08-05 18:07:18.520 ,4,1,0.,24.0,0.,24.0,0.,24.0,0.,24.0
1979-08-05 18:07:42.520 ,4,0,0.,24.0,0.,24.0,0.,24.0,0.,24.0
1979-08-05 18:08:06.520 ,3,1,0.,24.0,0.,24.0,0.,24.0,0.,24.0
1979-08-05 18:08:30.520 ,3,0,0.,24.0,0.,24.0,0.,24.0,0.,24.0
1979-08-05 18:08:54.520 ,2,1,0.,24.0,0.,24.0,0.,24.0,0.,24.0
1979-08-05 18:09:18.520 ,2,0,0.,24.0,0.,24.0,0.,24.0,0.,24.0
1979-08-05 18:09:42.520 ,1,1,0.,24.0,0.,24.0,0.,24.0,0.,24.0
1979-08-05 18:10:06.520 ,0,0,0.,24.0,0.,24.0,0.,24.0,0.,24.0
1979-08-05 18:10:30.520 ,0,1,0.,24.0,0.,24.0,0.,24.0,0.,24.0
1979-08-05 18:10:54.520 ,0,0,0.,24.0,0.,24.0,0.,24.0,0.,24.0
1979-08-05 18:11:18.520 ,0,1,1.,24.0,0.,24.0,0.,24.0,0.,24.0
1979-08-05 18:11:42.520 ,0,0,0.,24.0,0.,24.0,0.,24.0,0.,24.0
1979-08-05 18:12:06.520 ,1,1,0.,24.0,0.,24.0,0.,24.0,0.,24.0
1979-08-05 18:12:30.520 ,1,0,0.,24.0,0.,24.0,0.,24.0,0.,24.0
1979-08-05 18:12:54.520 ,2,1,0.,24.0,0.,24.0,0.,24.0,0.,24.0
1979-08-05 18:13:18.520 ,2,0,0.,24.0,0.,24.0,0.,24.0,0.,24.0
1979-08-05 18:13:42.520 ,3,1,0.,24.0,0.,24.0,0.,24.0,0.,24.0
1979-08-05 18:14:06.520 ,3,0,0.,24.0,0.,24.0,0.,24.0,0.,24.0
1979-08-05 18:14:30.520 ,4,1,0.,24.0,0.,24.0,0.,24.0,0.,24.0
1979-08-05 18:14:54.520 ,4,0,0.,24.0,0.,24.0,0.,24.0,0.,24.0
1979-08-05 18:15:18.520 ,5,1,0.,24.0,0.,24.0,0.,24.0,0.,24.0
1979-08-05 18:15:42.520 ,5,0,0.,24.0,0.,24.0,0.,24.0,0.,24.0
1979-08-05 18:16:06.520 ,6,1,0.,24.0,0.,24.0,0.,24.0,0.,24.0
1979-08-05 18:16:30.520 ,6,0,0.,24.0,0.,24.0,0.,24.0,0.,24.0
1979-08-05 18:16:54.520 ,7,1,0.,24.0,0.,24.0,0.,24.0,0.,24.0
1979-08-05 18:17:18.520 ,7,1,0.,24.0,0.,24.0,0.,24.0,0.,24.0
1979-08-05 18:17:42.520 ,7,1,0.,24.0,0.,24.0,0.,24.0,0.,24.0
1979-08-05 18:18:06.520 ,7,0,0.,24.0,0.,24.0,0.,24.0,0.,24.0
1979-08-05 18:18:30.520 ,6,1,0.,24.0,0.,24.0,0.,24.0,0.,24.0
1979-08-05 18:18:54.520 ,6,0,0.,24.0,0.,24.0,0.,24.0,0.,24.0
1979-08-05 18:19:18.520 ,5,1,0.,24.0,0.,24.0,0.,24.0,0.,24.0
1979-08-05 18:19:42.520 ,5,0,0.,24.0,0.,24.0,0.,24.0,0.,24.0
1979-08-05 18:20:06.520 ,4,1,0.,24.0,0.,24.0,0.,24.0,0.,24.0
1979-08-05 18:20:30.520 ,4,0,0.,24.0,0.,24.0,0.,24.0,0.,24.0
1979-08-05 18:20:54.520 ,3,1,0.,24.0,0.,24.0,0.,24.0,0.,24.0
1979-08-05 18:21:18.520 ,3,0,0.,24.0,0.,24.0,0.,24.0,0.,24.0
1979-08-05 18:21:42.520 ,2,1,0.,24.0,0.,24.0,0.,24.0,0.,24.0
1979-08-05 18:22:06.520 ,2,0,0.,24.0,0.,24.0,0.,24.0,0.,24.0
1979-08-05 18:22:30.520 ,1,1,0.,24.0,0.,24.0,0.,24.0,0.,24.0
1979-08-05 18:22:54.520 ,1,0,0.,24.0,0.,24.0,0.,24.0,0.,24.0
1979-08-05 18:23:18.520 ,0,1,0.,24.0,0.,24.0,0.,24.0,0.,24.0
1979-08-05 18:23:42.520 ,0,0,0.,24.0,0.,24.0,0.,24.0,0.,24.0
1979-08-05 18:24:06.520 ,0,0,0.,24.0,0.,24.0,0.,24.0,0.,24.0
1979-08-05 18:24:30.520 ,0,0,0.,24.0,0.,24.0,0.,24.0,0.,24.0
1979-08-05 18:24:54.520 ,1,1,0.,24.0,0.,24.0,0.,24.0,0.,24.0
1979-08-05 18:25:18.520 ,1,0,0.,24.0,0.,24.0,0.,24.0,0.,24.0
1979-08-05 18:25:42.520 ,2,1,0.,24.0,0.,24.0,0.,24.0,0.,24.0
1979-08-05 18:26:06.520 ,2,0,0.,24.0,0.,24.0,0.,24.0,0.,24.0
1979-08-05 18:26:30.520 ,3,1,0.,24.0,0.,24.0,0.,24.0,0.,24.0
1979-08-05 18:26:54.520 ,3,0,0.,24.0,0.,24.0,0.,24.0,0.,24.0
1979-08-05 18:27:18.520 ,4,1,1.,24.0,0.,24.0,0.,24.0,0.,24.0
1979-08-05 18:27:42.520 ,4,0,0.,24.0,0.,24.0,0.,24.0,0.,24.0
1979-08-05 18:28:06.520 ,5,1,1.,24.0,0.,24.0,0.,24.0,0.,24.0
1979-08-05 18:28:30.520 ,5,0,0.,24.0,0.,24.0,0.,24.0,0.,24.0
1979-08-05 18:28:54.520 ,6,1,0.,24.0,0.,24.0,0.,24.0,0.,24.0
1979-08-05 18:29:18.520 ,6,0,0.,24.0,0.,24.0,0.,24.0,0.,24.0
1979-08-05 18:29:42.520 ,7,1,0.,24.0,0.,24.0,0.,24.0,0.,24.0
1979-08-05 18:30:06.520 ,7,0,0.,24.0,0.,24.0,0.,24.0,0.,24.0
1979-08-05 18:30:30.520 ,7,1,0.,24.0,0.,24.0,0.,24.0,0.,24.0
1979-08-05 18:30:54.520 ,0,0,0.,24.0,0.,24.0,0.,24.0,0.,24.0
1979-08-05 18:31:18.520 ,6,1,0.,24.0,0.,24.0,0.,24.0,0.,24.0
1979-08-05 18:31:42.520 ,6,0,0.,24.0,0.,24.0,0.,24.0,0.,24.0
1979-08-05 18:32:06.520 ,5,1,0.,24.0,0.,24.0,0.,24.0,0.,24.0
1979-08-05 18:32:30.520 ,5,0,0.,24.0,0.,24.0,0.,24.0,0.,24.0
1979-08-05 18:32:54.520 ,4,1,1.,24.0,0.,24.0,0.,24.0,0.,24.0
1979-08-05 18:33:18.520 ,4,0,0.,24.0,0.,24.0,0.,24.0,0.,24.0
1979-08-05 18:33:42.520 ,3,1,0.,24.0,0.,24.0,0.,24.0,0.,24.0
1979-08-05 18:34:06.520 ,3,0,0.,24.0,0.,24.0,0.,24.0,0.,24.0
1979-08-05 18:34:30.520 ,2,1,0.,24.0,0.,24.0,0.,24.0,0.,24.0
1979-08-05 18:34:54.520 ,2,0,0.,24.0,0.,24.0,0.,24.0,0.,24.0
1979-08-05 18:35:18.520 ,1,1,0.,24.0,0.,24.0,0.,24.0,0.,24.0
1979-08-05 18:35:42.520 ,1,0,0.,24.0,0.,24.0,0.,24.0,0.,24.0
1979-08-05 18:36:06.520 ,0,1,0.,24.0,0.,24.0,0.,24.0,0.,24.0
1979-08-05 18:36:30.520 ,0,0,0.,24.0,0.,24.0,0.,24.0,0.,24.0
1979-08-05 18:36:54.520 ,0,1,0.,24.0,0.,24.0,0.,24.0,0.,24.0
1979-08-05 18:37:18.520 ,0,0,0.,24.0,0.,24.0,0.,24.0,0.,24.0
1979-08-05 18:37:42.520 ,1,1,0.,24.0,0.,24.0,0.,24.0,0.,24.0
1979-08-05 18:38:06.520 ,1,0,0.,24.0,0.,24.0,0.,24.0,0.,24.0
1979-08-05 18:38:30.520 ,2,1,0.,24.0,0.,24.0,0.,24.0,0.,24.0
1979-08-05 18:38:54.520 ,2,0,0.,24.0,0.,24.0,0.,24.0,0.,24.0
1979-08-05 18:39:18.520 ,3,1,0.,24.0,0.,24.0,0.,24.0,0.,24.0
1979-08-05 18:39:42.520 ,3,0,0.,24.0,0.,24.0,0.,24.0,0.,24.0
1979-08-05 18:40:06.520 ,4,1,0.,24.0,0.,24.0,0.,24.0,0.,24.0
1979-08-05 18:40:30.520 ,4,0,0.,24.0,0.,24.0,0.,24.0,0.,24.0
1979-08-05 18:40:54.520 ,5,1,0.,24.0,0.,24.0,0.,24.0,0.,24.0
1979-08-05 18:41:18.520 ,5,0,0.,24.0,0.,24.0,0.,24.0,0.,24.0
1979-08-05 18:41:42.520 ,6,1,0.,24.0,0.,24.0,0.,24.0,0.,24.0
1979-08-05 18:42:06.520 ,6,0,0.,24.0,0.,24.0,0.,24.0,0.,24.0
1979-08-05 18:42:30.520 ,7,0,0.,24.0,0.,24.0,0.,24.0,0.,24.0
1979-08-05 18:42:54.520 ,7,0,0.,24.0,0.,24.0,0.,24.0,0.,24.0
1979-08-05 18:43:18.520 ,5,1,0.,24.0,0.,24.0,0.,24.0,0.,24.0
1979-08-05 18:43:42.520 ,1,1,0.,24.0,0.,24.0,0.,24.0,0.,24.0
1979-08-05 18:44:06.520 ,2,1,0.,24.0,0.,24.0,0.,24.0,0.,24.0
1979-08-05 18:44:30.520 ,6,1,1.,24.0,0.,24.0,0.,24.0,0.,24.0
1979-08-05 18:44:54.520 ,5,1,0.,24.0,0.,24.0,0.,24.0,0.,24.0
1979-08-05 18:45:18.520 ,1,1,0.,24.0,0.,24.0,0.,24.0,0.,24.0
1979-08-05 18:45:42.520 ,2,1,0.,24.0,0.,24.0,0.,24.0,0.,24.0
1979-08-05 18:46:06.520 ,6,1,0.,24.0,0.,24.0,0.,24.0,0.,24.0
1979-08-05 18:46:30.520 ,5,1,0.,24.0,0.,24.0,0.,24.0,0.,24.0
1979-08-05 18:46:54.520 ,1,1,0.,24.0,0.,24.0,0.,24.0,0.,24.0
1979-08-05 18:47:18.520 ,2,1,0.,24.0,0.,24.0,0.,24.0,0.,24.0
1979-08-05 18:47:42.520 ,6,1,0.,24.0,0.,24.0,0.,24.0,0.,24.0
1979-08-05 18:48:06.520 ,5,1,0.,24.0,0.,24.0,0.,24.0,0.,24.0
1979-08-05 18:48:30.520 ,1,1,0.,24.0,0.,24.0,0.,24.0,0.,24.0
1979-08-05 18:48:54.520 ,2,1,0.,24.0,0.,24.0,0.,24.0,0.,24.0
1979-08-05 18:49:18.520 ,6,1,0.,24.0,0.,24.0,0.,24.0,0.,24.0
1979-08-05 18:49:42.520 ,5,1,0.,24.0,0.,24.0,0.,24.0,0.,24.0
1979-08-05 18:50:06.520 ,1,1,0.,24.0,0.,24.0,0.,24.0,0.,24.0
1979-08-05 18:50:30.520 ,2,1,0.,24.0,0.,24.0,0.,24.0,0.,24.0
1979-08-05 18:50:54.520 ,6,1,0.,24.0,0.,24.0,0.,24.0,0.,24.0
1979-08-05 18:51:18.520 ,5,1,0.,24.0,0.,24.0,0.,24.0,0.,24.0
1979-08-05 18:51:42.520 ,1,1,0.,24.0,0.,24.0,0.,24.0,0.,24.0
1979-08-05 18:52:06.520 ,2,1,0.,24.0,0.,24.0,0.,24.0,0.,24.0
1979-08-05 18:52:30.520 ,6,1,0.,24.0,0.,24.0,0.,24.0,0.,24.0
1979-08-05 18:52:54.520 ,5,1,0.,24.0,0.,24.0,0.,24.0,0.,24.0
1979-08-05 18:53:18.520 ,1,1,0.,24.0,0.,24.0,0.,24.0,0.,24.0
1979-08-05 18:53:42.520 ,0,0,0.,24.0,0.,24.0,0.,24.0,0.,24.0
1979-08-05 18:54:06.520 ,0,0,0.,24.0,0.,24.0,0.,24.0,0.,24.0
1979-08-05 18:54:30.520 ,5,1,0.,24.0,0.,24.0,0.,24.0,0.,24.0
1979-08-05 18:54:54.520 ,5,0,1.,24.0,0.,24.0,0.,24.0,0.,24.0
1979-08-05 18:55:18.520 ,4,1,0.,24.0,0.,24.0,0.,24.0,0.,24.0
1979-08-05 18:55:42.520 ,4,0,0.,24.0,0.,24.0,0.,24.0,0.,24.0
1979-08-05 18:56:06.520 ,3,1,0.,24.0,0.,24.0,0.,24.0,0.,24.0
1979-08-05 18:56:30.520 ,3,0,0.,24.0,0.,24.0,0.,24.0,0.,24.0
1979-08-05 18:56:54.520 ,2,1,0.,24.0,0.,24.0,0.,24.0,0.,24.0
1979-08-05 18:57:18.520 ,2,0,0.,24.0,0.,24.0,0.,24.0,0.,24.0
1979-08-05 18:57:42.520 ,1,1,0.,24.0,0.,24.0,0.,24.0,0.,24.0
1979-08-05 18:58:06.520 ,1,0,0.,24.0,0.,24.0,0.,24.0,0.,24.0
1979-08-05 18:58:30.520 ,0,0,,0,,0,,0,,0
1979-08-05 18:58:54.520 ,0,0,0.,24.0,0.,24.0,0.,24.0,0.,24.0
1979-08-05 18:59:18.520 ,0,1,0.,24.0,0.,24.0,0.,24.0,0.,24.0
1979-08-05 18:59:42.520 ,0,0,0.,24.0,0.,24.0,0.,24.0,0.,24.0
1979-08-05 19:00:06.520 ,1,1,0.,24.0,0.,24.0,0.,24.0,0.,24.0
1979-08-05 19:00:30.520 ,1,0,0.,24.0,0.,24.0,0.,24.0,0.,24.0
1979-08-05 19:00:54.520 ,2,1,0.,24.0,0.,24.0,0.,24.0,0.,24.0
1979-08-05 19:01:18.520 ,2,0,0.,24.0,0.,24.0,0.,24.0,0.,24.0
1979-08-05 19:01:42.520 ,3,1,0.,24.0,0.,24.0,0.,24.0,0.,24.0
1979-08-05 19:02:06.520 ,3,0,0.,24.0,0.,24.0,0.,24.0,0.,24.0
1979-08-05 19:02:30.520 ,4,1,0.,24.0,0.,24.0,0.,24.0,0.,24.0
1979-08-05 19:02:54.520 ,4,0,0.,24.0,0.,24.0,0.,24.0,0.,24.0
1979-08-05 19:03:18.520 ,5,1,0.,24.0,0.,24.0,0.,24.0,0.,24.0
1979-08-05 19:03:42.520 ,5,0,0.,24.0,0.,24.0,0.,24.0,0.,24.0
1979-08-05 19:04:06.520 ,6,1,0.,24.0,0.,24.0,0.,24.0,0.,24.0
1979-08-05 19:04:30.520 ,6,0,0.,24.0,0.,24.0,0.,24.0,0.,24.0
1979-08-05 19:04:54.520 ,7,1,0.,24.0,0.,24.0,0.,24.0,0.,24.0
1979-08-05 19:05:18.520 ,7,0,0.,24.0,0.,24.0,0.,24.0,0.,24.0
1979-08-05 19:05:42.520 ,7,1,0.,24.0,0.,24.0,0.,24.0,0.,24.0
1979-08-05 19:06:06.520 ,7,0,0.,24.0,0.,24.0,0.,24.0,0.,24.0
1979-08-05 19:06:30.520 ,6,1,0.,24.0,0.,24.0,0.,24.0,0.,24.0
1979-08-05 19:06:54.520 ,6,0,0.,24.0,0.,24.0,0.,24.0,0.,24.0
1979-08-05 19:07:18.520 ,5,1,0.,24.0,0.,24.0,0.,24.0,0.,24.0
1979-08-05 19:07:42.520 ,5,0,0.,24.0,0.,24.0,0.,24.0,0.,24.0
1979-08-05 19:08:06.520 ,4,1,0.,24.0,0.,24.0,0.,24.0,0.,24.0
1979-08-05 19:08:30.520 ,4,0,0.,24.0,0.,24.0,0.,24.0,0.,24.0
1979-08-05 19:08:54.520 ,3,1,0.,24.0,0.,24.0,0.,24.0,0.,24.0
1979-08-05 19:09:18.520 ,3,0,0.,24.0,0.,24.0,0.,24.0,0.,24.0
1979-08-05 19:09:42.520 ,2,1,0.,24.0,0.,24.0,0.,24.0,0.,24.0
1979-08-05 19:10:06.520 ,2,0,0.,24.0,0.,24.0,0.,24.0,0.,24.0
1979-08-05 19:10:30.520 ,1,1,0.,24.0,0.,24.0,0.,24.0,0.,24.0
1979-08-05 19:10:54.520 ,1,0,0.,24.0,0.,24.0,0.,24.0,0.,24.0
1979-08-05 19:11:18.520 ,0,1,0.,24.0,0.,24.0,0.,24.0,0.,24.0
1979-08-05 19:11:42.520 ,0,0,0.,24.0,0.,24.0,0.,24.0,0.,24.0
1979-08-05 19:12:06.520 ,0,1,0.,24.0,0.,24.0,0.,24.0,0.,24.0
1979-08-05 19:12:30.520 ,0,0,0.,24.0,0.,24.0,0.,24.0,0.,24.0
1979-08-05 19:12:54.520 ,1,1,0.,24.0,0.,24.0,0.,24.0,0.,24.0
1979-08-05 19:13:18.520 ,1,0,1.,24.0,0.,24.0,0.,24.0,0.,24.0
1979-08-05 19:13:42.520 ,2,1,0.,24.0,0.,24.0,0.,24.0,0.,24.0
1979-08-05 19:14:06.520 ,2,0,0.,24.0,0.,24.0,0.,24.0,0.,24.0
1979-08-05 19:14:30.520 ,3,1,0.,24.0,0.,24.0,0.,24.0,0.,24.0
1979-08-05 19:14:54.520 ,3,0,0.,24.0,0.,24.0,0.,24.0,0.,24.0
1979-08-05 19:15:18.520 ,4,1,0.,24.0,0.,24.0,0.,24.0,0.,24.0
1979-08-05 19:15:42.520 ,4,0,0.,24.0,0.,24.0,0.,24.0,0.,24.0
1979-08-05 19:16:06.520 ,5,1,0.,24.0,0.,24.0,0.,24.0,0.,24.0
1979-08-05 19:16:30.520 ,5,0,0.,24.0,0.,24.0,0.,24.0,0.,24.0
1979-08-05 19:16:54.520 ,6,1,0.,24.0,0.,24.0,0.,24.0,0.,24.0
1979-08-05 19:17:18.520 ,6,0,0.,24.0,0.,24.0,0.,24.0,0.,24.0
1979-08-05 19:17:42.520 ,7,1,1.,24.0,0.,24.0,0.,24.0,0.,24.0
1979-08-05 19:18:06.520 ,7,0,0.,24.0,0.,24.0,0.,24.0,0.,24.0
1979-08-05 19:18:30.520 ,0,0,0.,24.0,0.,24.0,0.,24.0,0.,24.0
1979-08-05 19:18:54.520 ,0,0,0.,24.0,0.,24.0,0.,24.0,0.,24.0
1979-08-05 19:19:18.520 ,6,1,0.,24.0,0.,24.0,0.,24.0,0.,24.0
1979-08-05 19:19:42.520 ,6,0,0.,24.0,0.,24.0,0.,24.0,0.,24.0
1979-08-05 19:20:06.520 ,5,1,0.,24.0,0.,24.0,0.,24.0,0.,24.0
1979-08-05 19:20:30.520 ,5,0,0.,24.0,0.,24.0,0.,24.0,0.,24.0
1979-08-05 19:20:54.520 ,4,1,0.,24.0,0.,24.0,0.,24.0,0.,24.0
1979-08-05 19:21:18.520 ,4,0,0.,24.0,0.,24.0,0.,24.0,0.,24.0
1979-08-05 19:21:42.520 ,3,1,0.,24.0,0.,24.0,0.,24.0,0.,24.0
1979-08-05 19:22:06.520 ,3,0,0.,24.0,0.,24.0,0.,24.0,0.,24.0
1979-08-05 19:22:30.520 ,2,1,0.,24.0,0.,24.0,0.,24.0,0.,24.0
1979-08-05 19:22:54.520 ,2,0,0.,24.0,0.,24.0,0.,24.0,0.,24.0
1979-08-05 19:23:18.520 ,1,1,0.,24.0,0.,24.0,0.,24.0,0.,24.0
1979-08-05 19:23:42.520 ,1,0,0.,24.0,0.,24.0,0.,24.0,0.,24.0
1979-08-05 19:24:06.520 ,0,1,0.,24.0,0.,24.0,0.,24.0,0.,24.0
1979-08-05 19:24:30.520 ,0,0,0.,24.0,0.,24.0,0.,24.0,0.,24.0
1979-08-05 19:24:54.520 ,0,1,0.,24.0,0.,24.0,0.,24.0,0.,24.0
1979-08-05 19:25:18.520 ,0,0,1.,24.0,0.,24.0,0.,24.0,0.,24.0
1979-08-05 19:25:42.520 ,1,1,0.,24.0,0.,24.0,0.,24.0,0.,24.0
1979-08-05 19:26:06.520 ,1,0,0.,24.0,0.,24.0,0.,24.0,0.,24.0
1979-08-05 19:26:30.520 ,2,1,0.,24.0,0.,24.0,0.,24.0,0.,24.0
1979-08-05 19:26:54.520 ,2,0,0.,24.0,0.,24.0,0.,24.0,0.,24.0
1979-08-05 19:27:18.520 ,3,1,0.,24.0,0.,24.0,0.,24.0,0.,24.0
1979-08-05 19:27:42.520 ,3,0,0.,24.0,0.,24.0,0.,24.0,0.,24.0
1979-08-05 19:28:06.520 ,4,1,0.,24.0,0.,24.0,0.,24.0,0.,24.0
1979-08-05 19:28:30.520 ,4,0,0.,24.0,0.,24.0,0.,24.0,0.,24.0
1979-08-05 19:28:54.520 ,0,0,0.,24.0,0.,24.0,0.,24.0,0.,24.0
1979-08-05 19:29:18.520 ,0,0,0.,24.0,0.,24.0,0.,24.0,0.,24.0
1979-08-05 19:29:42.520 ,6,0,,0,,0,,0,,0
1979-08-05 19:30:06.520 ,0,0,0.,24.0,0.,24.0,0.,24.0,0.,24.0
1979-08-05 19:30:30.520 ,0,0,0.,24.0,0.,24.0,0.,24.0,0.,24.0
1979-08-05 19:30:54.520 ,7,0,0.,24.0,0.,24.0,0.,24.0,0.,24.0
1979-08-05 19:31:18.520 ,5,1,0.,24.0,0.,24.0,0.,24.0,0.,24.0
1979-08-05 19:31:42.520 ,1,1,0.,24.0,0.,24.0,0.,24.0,0.,24.0
1979-08-05 19:32:06.520 ,2,1,0.,24.0,0.,24.0,0.,24.0,0.,24.0
1979-08-05 19:32:30.520 ,0,0,0.,24.0,0.,24.0,0.,24.0,0.,24.0
1979-08-05 19:32:54.520 ,0,0,0.,24.0,0.,24.0,0.,24.0,0.,24.0
1979-08-05 19:33:18.520 ,0,0,0.,24.0,0.,24.0,0.,24.0,0.,24.0
1979-08-05 19:33:42.520 ,0,0,0.,24.0,0.,24.0,0.,24.0,0.,24.0
1979-08-05 19:34:06.520 ,6,1,0.,24.0,0.,24.0,0.,24.0,0.,24.0
1979-08-05 19:34:31.720 ,0,0,0.,24.0,0.,24.0,0.,24.0,0.,24.0
1979-08-05 19:34:54.520 ,0,0,,0,,0,,0,,0
1979-08-05 19:35:18.520 ,2,1,0.,24.0,0.,24.0,0.,24.0,0.,24.0
1979-08-05 19:35:42.520 ,7,1,,0,,0,,0,,0
1979-08-05 19:36:06.520 ,0,0,0.,24.0,0.,24.0,0.,24.0,0.,24.0
1979-08-05 19:36:30.520 ,0,1,,0,,0,,0,,0
1979-08-05 19:36:54.520 ,2,1,0.,24.0,0.,24.0,0.,24.0,0.,24.0
1979-08-05 19:37:18.520 ,0,0,,0,,0,,0,,0
1979-08-05 19:37:43.120 ,0,0,0.,24.0,0.,24.0,0.,24.0,0.,24.0
1979-08-05 19:38:06.520 ,0,0,0.,24.0,0.,24.0,0.,24.0,0.,24.0
1979-08-05 19:38:30.520 ,0,0,0.,24.0,0.,24.0,0.,24.0,0.,24.0
1979-08-05 19:38:54.520 ,6,1,0.,24.0,0.,24.0,0.,24.0,0.,24.0
1979-08-05 19:39:18.520 ,0,0,0.,24.0,0.,24.0,0.,24.0,0.,24.0
1979-08-05 19:39:42.520 ,0,0,0.,24.0,0.,24.0,0.,24.0,0.,24.0
1979-08-05 19:40:06.520 ,0,0,0.,24.0,0.,24.0,0.,24.0,0.,24.0
1979-08-05 19:40:30.520 ,6,1,0.,24.0,0.,24.0,0.,24.0,0.,24.0
1979-08-05 19:40:55.720 ,0,0,0.,24.0,0.,24.0,0.,24.0,0.,24.0
1979-08-05 19:41:18.520 ,1,1,0.,24.0,0.,24.0,0.,24.0,0.,24.0
1979-08-05 19:41:42.520 ,0,0,0.,24.0,0.,24.0,0.,24.0,0.,24.0
1979-08-05 19:42:06.520 ,0,0,0.,24.0,0.,24.0,0.,24.0,0.,24.0
1979-08-05 19:42:30.520 ,0,0,0.,24.0,0.,24.0,0.,24.0,0.,24.0
1979-08-05 19:42:54.520 ,7,1,0.,24.0,0.,24.0,0.,24.0,0.,24.0
1979-08-05 19:43:19.720 ,4,1,0.,24.0,0.,24.0,0.,24.0,0.,24.0
1979-08-05 19:43:42.520 ,4,0,0.,24.0,0.,24.0,0.,24.0,0.,24.0
1979-08-05 19:44:07.720 ,0,0,0.,24.0,0.,24.0,0.,24.0,0.,24.0
1979-08-05 19:44:30.520 ,0,0,0.,24.0,0.,24.0,0.,24.0,0.,24.0
1979-08-05 19:44:54.520 ,2,1,0.,24.0,0.,24.0,0.,24.0,0.,24.0
1979-08-05 19:45:18.520 ,2,0,0.,24.0,0.,24.0,0.,24.0,0.,24.0
1979-08-05 19:45:42.520 ,1,1,1.,24.0,0.,24.0,0.,24.0,0.,24.0
1979-08-05 19:46:06.520 ,1,0,,0,,0,,0,,0
1979-08-05 19:46:30.520 ,0,1,0.,24.0,0.,24.0,0.,24.0,0.,24.0
1979-08-05 19:46:54.520 ,0,0,0.,24.0,0.,24.0,0.,24.0,0.,24.0
1979-08-05 19:47:18.520 ,0,1,0.,24.0,0.,24.0,0.,24.0,0.,24.0
1979-08-05 19:47:42.520 ,0,1,,0,,0,,0,,0
1979-08-05 19:48:06.520 ,1,1,0.,24.0,0.,24.0,0.,24.0,0.,24.0
1979-08-05 19:48:30.520 ,0,0,1.,24.0,0.,24.0,0.,24.0,0.,24.0
1979-08-05 19:48:54.520 ,2,1,0.,24.0,0.,24.0,0.,24.0,0.,24.0
1979-08-05 19:49:18.520 ,0,1,0.,24.0,0.,24.0,0.,24.0,0.,24.0
1979-08-05 19:49:42.520 ,3,1,0.,24.0,0.,24.0,0.,24.0,0.,24.0
1979-08-05 19:50:06.520 ,3,0,0.,24.0,0.,24.0,0.,24.0,0.,24.0
1979-08-05 19:50:30.520 ,0,0,0.,24.0,0.,24.0,0.,24.0,0.,24.0
1979-08-05 19:50:54.520 ,0,0,0.,24.0,0.,24.0,0.,24.0,0.,24.0
1979-08-05 19:51:18.520 ,0,0,0.,24.0,0.,24.0,0.,24.0,0.,24.0
1979-08-05 19:51:42.520 ,0,0,0.,24.0,0.,24.0,0.,24.0,0.,24.0
1979-08-05 19:52:06.520 ,6,1,0.,24.0,0.,24.0,0.,24.0,0.,24.0
1979-08-05 19:52:30.520 ,6,0,0.,24.0,0.,24.0,0.,24.0,0.,24.0
1979-08-05 19:52:54.520 ,7,1,0.,24.0,0.,24.0,0.,24.0,0.,24.0
1979-08-05 19:53:18.520 ,7,0,0.,24.0,0.,24.0,0.,24.0,0.,24.0
1979-08-05 19:53:42.520 ,7,1,0.,24.0,0.,24.0,0.,24.0,0.,24.0
1979-08-05 19:54:06.520 ,7,0,0.,24.0,0.,24.0,0.,24.0,0.,24.0
1979-08-05 19:54:30.520 ,6,1,0.,24.0,0.,24.0,0.,24.0,0.,24.0
1979-08-05 19:54:54.520 ,0,0,0.,24.0,0.,24.0,0.,24.0,0.,24.0
1979-08-05 19:55:18.520 ,5,1,0.,24.0,0.,24.0,0.,24.0,1.,24.0
1979-08-05 19:55:42.520 ,5,0,0.,24.0,0.,24.0,0.,24.0,0.,24.0
1979-08-05 19:56:06.520 ,4,1,0.,24.0,0.,24.0,0.,24.0,0.,24.0
1979-08-05 19:56:30.520 ,4,0,0.,24.0,0.,24.0,0.,24.0,0.,24.0
1979-08-05 19:56:54.520 ,3,1,0.,24.0,0.,24.0,0.,24.0,0.,24.0
1979-08-05 19:57:18.520 ,3,0,0.,24.0,0.,24.0,0.,24.0,0.,24.0
1979-08-05 19:57:42.520 ,2,1,0.,24.0,0.,24.0,0.,24.0,0.,24.0
1979-08-05 19:58:06.520 ,2,0,0.,24.0,0.,24.0,0.,24.0,0.,24.0
1979-08-05 19:58:31.120 ,1,1,0.,24.0,0.,24.0,0.,24.0,0.,24.0
1979-08-05 19:58:54.520 ,1,0,0.,24.0,0.,24.0,0.,24.0,0.,24.0
1979-08-05 19:59:18.520 ,0,0,,0,,0,,0,,0
1979-08-05 19:59:42.520 ,0,0,,0,,0,,0,,0
1979-08-05 19:59:42.520 ,0,0,0.,24.0,0.,24.0,0.,24.0,0.,24.0
1979-08-05 20:00:06.520 ,0,1,0.,24.0,0.,24.0,0.,24.0,0.,24.0
1979-08-05 20:00:30.520 ,0,0,0.,24.0,0.,24.0,0.,24.0,0.,24.0
1979-08-05 20:00:54.520 ,1,1,0.,24.0,0.,24.0,0.,24.0,0.,24.0
1979-08-05 20:01:18.520 ,1,0,0.,24.0,0.,24.0,0.,24.0,0.,24.0
1979-08-05 20:01:42.520 ,2,1,0.,24.0,0.,24.0,0.,24.0,0.,24.0
1979-08-05 20:02:06.520 ,2,0,0.,24.0,0.,24.0,0.,24.0,0.,24.0
1979-08-05 20:02:30.520 ,3,1,0.,24.0,0.,24.0,0.,24.0,0.,24.0
1979-08-05 20:02:54.520 ,3,0,0.,24.0,0.,24.0,0.,24.0,0.,24.0
1979-08-05 20:03:18.520 ,4,1,1.,24.0,0.,24.0,0.,24.0,0.,24.0
1979-08-05 20:03:42.520 ,4,0,0.,24.0,0.,24.0,0.,24.0,0.,24.0
1979-08-05 20:04:06.520 ,5,1,0.,24.0,0.,24.0,0.,24.0,0.,24.0
1979-08-05 20:04:30.520 ,5,0,0.,24.0,0.,24.0,0.,24.0,0.,24.0
1979-08-05 20:04:54.520 ,6,1,0.,24.0,0.,24.0,0.,24.0,0.,24.0
1979-08-05 20:05:18.520 ,6,0,0.,24.0,0.,24.0,0.,24.0,0.,24.0
1979-08-05 20:05:42.520 ,7,1,0.,24.0,0.,24.0,0.,24.0,0.,24.0
1979-08-05 20:06:06.520 ,7,0,0.,24.0,0.,24.0,0.,24.0,0.,24.0
1979-08-05 20:06:30.520 ,7,1,0.,24.0,0.,24.0,0.,24.0,0.,24.0
1979-08-05 20:06:54.520 ,7,0,,0,,0,,0,,0
1979-08-05 20:07:18.520 ,6,1,0.,24.0,0.,24.0,0.,24.0,0.,24.0
1979-08-05 20:07:42.520 ,6,0,0.,24.0,0.,24.0,0.,24.0,1.,24.0
1979-08-05 20:08:06.520 ,5,1,0.,24.0,0.,24.0,0.,24.0,0.,24.0
1979-08-05 20:08:30.520 ,5,0,0.,24.0,0.,24.0,0.,24.0,0.,24.0
1979-08-05 20:08:54.520 ,4,1,0.,24.0,0.,24.0,0.,24.0,0.,24.0
1979-08-05 20:09:18.520 ,4,0,0.,24.0,0.,24.0,0.,24.0,0.,24.0
1979-08-05 20:09:42.520 ,3,1,0.,24.0,0.,24.0,0.,24.0,0.,24.0
1979-08-05 20:10:06.520 ,3,0,0.,24.0,0.,24.0,0.,24.0,0.,24.0
1979-08-05 20:10:30.520 ,2,1,0.,24.0,0.,24.0,0.,24.0,0.,24.0
1979-08-05 20:10:54.520 ,2,0,0.,24.0,0.,24.0,0.,24.0,0.,24.0
1979-08-05 20:11:18.520 ,1,1,0.,24.0,0.,24.0,0.,24.0,0.,24.0
1979-08-05 20:11:42.520 ,1,0,0.,24.0,0.,24.0,0.,24.0,0.,24.0
1979-08-05 20:12:06.520 ,0,1,0.,24.0,0.,24.0,0.,24.0,0.,24.0
1979-08-05 20:12:30.520 ,0,0,0.,24.0,0.,24.0,0.,24.0,0.,24.0
1979-08-05 20:12:54.520 ,0,1,0.,24.0,0.,24.0,0.,24.0,0.,24.0
1979-08-05 20:13:18.520 ,0,1,0.,24.0,0.,24.0,0.,24.0,0.,24.0
1979-08-05 20:13:42.520 ,1,1,0.,24.0,0.,24.0,0.,24.0,0.,24.0
1979-08-05 20:14:06.520 ,1,0,0.,24.0,0.,24.0,0.,24.0,0.,24.0
1979-08-05 20:14:30.520 ,2,1,0.,24.0,0.,24.0,0.,24.0,0.,24.0
1979-08-05 20:14:54.520 ,2,0,0.,24.0,0.,24.0,0.,24.0,0.,24.0
1979-08-05 20:15:18.520 ,3,1,0.,24.0,0.,24.0,0.,24.0,0.,24.0
1979-08-05 20:15:42.520 ,3,0,0.,24.0,0.,24.0,0.,24.0,0.,24.0
1979-08-05 20:16:06.520 ,4,1,0.,24.0,0.,24.0,0.,24.0,0.,24.0
1979-08-05 20:16:30.520 ,4,0,0.,24.0,0.,24.0,0.,24.0,0.,24.0
1979-08-05 20:16:54.520 ,5,1,0.,24.0,0.,24.0,0.,24.0,0.,24.0
1979-08-05 20:17:18.520 ,5,0,0.,24.0,0.,24.0,0.,24.0,0.,24.0
1979-08-05 20:17:42.520 ,6,1,1.,24.0,0.,24.0,0.,24.0,0.,24.0
1979-08-05 20:18:06.520 ,6,0,1.,24.0,0.,24.0,0.,24.0,0.,24.0
1979-08-05 20:18:30.520 ,7,0,0.,24.0,0.,24.0,0.,24.0,0.,24.0
1979-08-05 20:18:54.520 ,7,0,0.,24.0,0.,24.0,0.,24.0,0.,24.0
1979-08-05 20:19:18.520 ,5,1,0.,24.0,0.,24.0,0.,24.0,0.,24.0
1979-08-05 20:19:42.520 ,1,1,0.,24.0,0.,24.0,0.,24.0,0.,24.0
1979-08-05 20:20:06.520 ,2,1,0.,24.0,0.,24.0,0.,24.0,0.,24.0
1979-08-05 20:20:30.520 ,6,1,0.,24.0,0.,24.0,0.,24.0,0.,24.0
1979-08-05 20:20:54.520 ,5,1,0.,24.0,0.,24.0,0.,24.0,0.,24.0
1979-08-05 20:21:18.520 ,1,1,0.,24.0,0.,24.0,0.,24.0,0.,24.0
1979-08-05 20:21:42.520 ,2,1,0.,24.0,0.,24.0,0.,24.0,0.,24.0
1979-08-05 20:22:06.520 ,6,1,0.,24.0,0.,24.0,0.,24.0,0.,24.0
1979-08-05 20:22:30.520 ,5,1,0.,24.0,0.,24.0,0.,24.0,0.,24.0
1979-08-05 20:22:54.520 ,1,1,0.,24.0,0.,24.0,0.,24.0,0.,24.0
1979-08-05 20:23:18.520 ,2,1,0.,24.0,0.,24.0,0.,24.0,0.,24.0
1979-08-05 20:23:42.520 ,6,1,0.,24.0,0.,24.0,0.,24.0,0.,24.0
1979-08-05 20:24:06.520 ,5,1,0.,24.0,0.,24.0,0.,24.0,0.,24.0
1979-08-05 20:24:30.520 ,1,1,1.,24.0,0.,24.0,0.,24.0,0.,24.0
1979-08-05 20:24:54.520 ,2,1,0.,24.0,0.,24.0,0.,24.0,0.,24.0
1979-08-05 20:25:18.520 ,6,1,0.,24.0,0.,24.0,0.,24.0,0.,24.0
1979-08-05 20:25:42.520 ,5,1,0.,24.0,0.,24.0,0.,24.0,0.,24.0
1979-08-05 20:26:06.520 ,1,1,0.,24.0,0.,24.0,0.,24.0,0.,24.0
1979-08-05 20:26:30.520 ,2,1,0.,24.0,0.,24.0,0.,24.0,0.,24.0
1979-08-05 20:26:54.520 ,6,1,0.,24.0,0.,24.0,0.,24.0,0.,24.0
1979-08-05 20:27:18.520 ,5,1,0.,24.0,0.,24.0,0.,24.0,0.,24.0
1979-08-05 20:27:42.520 ,1,1,0.,24.0,0.,24.0,0.,24.0,0.,24.0
1979-08-05 20:28:06.520 ,2,1,0.,24.0,0.,24.0,0.,24.0,0.,24.0
1979-08-05 20:28:30.520 ,6,1,0.,24.0,0.,24.0,0.,24.0,0.,24.0
1979-08-05 20:28:54.520 ,5,1,0.,24.0,0.,24.0,0.,24.0,0.,24.0
1979-08-05 20:29:18.520 ,1,1,0.,24.0,0.,24.0,0.,24.0,0.,24.0
1979-08-05 20:29:42.520 ,0,0,0.,24.0,0.,24.0,0.,24.0,0.,24.0
1979-08-05 20:30:06.520 ,0,0,0.,24.0,0.,24.0,0.,24.0,0.,24.0
1979-08-05 20:30:30.520 ,5,1,0.,24.0,0.,24.0,0.,24.0,0.,24.0
1979-08-05 20:30:54.520 ,5,0,,0,,0,,0,,0
1979-08-05 20:31:18.520 ,4,1,0.,24.0,0.,24.0,0.,24.0,0.,24.0
1979-08-05 20:31:42.520 ,4,0,0.,24.0,0.,24.0,0.,24.0,0.,24.0
1979-08-05 20:32:06.510 ,3,1,0.,24.0,0.,24.0,0.,24.0,0.,24.0
1979-08-05 20:32:30.510 ,3,0,0.,24.0,0.,24.0,0.,24.0,0.,24.0
1979-08-05 20:32:54.510 ,2,1,0.,24.0,0.,24.0,0.,24.0,0.,24.0
1979-08-05 20:33:18.510 ,2,0,0.,24.0,0.,24.0,0.,24.0,0.,24.0
1979-08-05 20:33:42.510 ,1,1,0.,24.0,0.,24.0,0.,24.0,0.,24.0
1979-08-05 20:34:06.510 ,0,0,0.,24.0,0.,24.0,0.,24.0,0.,24.0
1979-08-05 20:34:30.510 ,0,1,0.,24.0,0.,24.0,0.,24.0,0.,24.0
1979-08-05 20:34:54.510 ,0,0,0.,24.0,0.,24.0,0.,24.0,0.,24.0
1979-08-05 20:35:18.510 ,0,1,0.,24.0,0.,24.0,0.,24.0,0.,24.0
1979-08-05 20:35:42.510 ,0,0,0.,24.0,0.,24.0,0.,24.0,0.,24.0
1979-08-05 20:36:06.510 ,1,1,0.,24.0,0.,24.0,0.,24.0,0.,24.0
1979-08-05 20:36:30.510 ,1,0,0.,24.0,0.,24.0,0.,24.0,0.,24.0
1979-08-05 20:36:54.510 ,2,1,0.,24.0,0.,24.0,0.,24.0,0.,24.0
1979-08-05 20:37:18.510 ,2,0,0.,24.0,0.,24.0,0.,24.0,0.,24.0
1979-08-05 20:37:42.510 ,3,1,0.,24.0,0.,24.0,0.,24.0,0.,24.0
1979-08-05 20:38:06.510 ,3,0,1.,24.0,0.,24.0,0.,24.0,0.,24.0
1979-08-05 20:38:30.510 ,4,1,0.,24.0,0.,24.0,0.,24.0,0.,24.0
1979-08-05 20:38:54.510 ,4,0,0.,24.0,0.,24.0,0.,24.0,0.,24.0
1979-08-05 20:39:18.510 ,0,0,0.,24.0,0.,24.0,0.,24.0,0.,24.0
1979-08-05 20:39:42.510 ,0,0,,0,,0,,0,,0
1979-08-05 20:39:42.510 ,5,0,0.,24.0,0.,24.0,0.,24.0,0.,24.0